Caldwell, NJ

9:22 AM EDT on July 17, 2019 (GMT -0400)
Essex County

Weather History for KCDW - May, 2019

Change the Weather History Date:

Tuesday, May 14, 2019

  Actual Average Record
Temperature  
Mean Temperature 48 °F -  
Max Temperature 54 °F 71 °F 90 °F (1956)
Min Temperature 44 °F 46 °F 34 °F (1987)
Degree Days  
Heating Degree Days 16    
Moisture  
Dew Point 46 °F    
Average Humidity 91    
Maximum Humidity 100    
Minimum Humidity 74    
Precipitation  
Precipitation 0.23 in - - ()
Sea Level Pressure  
Sea Level Pressure 29.83 in    
Wind  
Wind Speed 3 mph (NE)    
Max Wind Speed 7 mph    
Max Gust Speed -    
Visibility 6 miles    
Events Rain    
Averages and records for this station are not official NWS values.
T = Trace of Precipitation, MM = Missing Value Source: NWS Daily Summary

Daily Weather History Graph

Daily Weather History Graph

Search for Another Location

Airport or City:

Astronomy

May. 14, 2019 Rise Set
Actual Time 5:40 AM EDT 8:06 PM EDT
Civil Twilight 5:09 AM EDT 8:37 PM EDT
Nautical Twilight 4:31 AM EDT 9:16 PM EDT
Astronomical Twilight 3:48 AM EDT 9:59 PM EDT
Moon 3:22 PM EDT (5/14) 3:35 AM EDT (5/14)
Length of Visible Light 15h 28m
Length of Day
14h 25m
Waxing Gibbous, 79% of the Moon is Illuminated
May 14
Waxing Gibbous
May 18
Full
May 26
Last Quarter
Jun 3
New
Jun 10
First Quarter

Hourly Weather History & Observations

Time (EDT) Temp. Windchill Dew Point Humidity Pressure Visibility Wind Dir Wind Speed Gust Speed Precip Events Conditions
12:53 AM 46.0 °F - 45.0 °F 96% 29.87 in 8.0 mi Calm Calm - N/A   Overcast
1:53 AM 45.0 °F 42.6 °F 43.0 °F 93% 29.85 in 10.0 mi NE 4.6 mph - N/A   Overcast
2:53 AM 45.0 °F 41.8 °F 42.1 °F 90% 29.84 in 10.0 mi ENE 5.8 mph - N/A   Overcast
3:53 AM 45.0 °F 43.5 °F 43.0 °F 93% 29.83 in 7.0 mi ENE 3.5 mph - N/A   Overcast
4:26 AM 44.1 °F 41.5 °F 44.1 °F 100% 29.81 in 2.5 mi ENE 4.6 mph - N/A   Overcast
4:32 AM 44.1 °F 42.5 °F 44.1 °F 100% 29.81 in 3.0 mi ENE 3.5 mph - N/A   Overcast
4:53 AM 44.1 °F 41.5 °F 44.1 °F 100% 29.83 in 4.0 mi ESE 4.6 mph - N/A   Overcast
5:06 AM 44.1 °F 41.5 °F 43.0 °F 96% 29.82 in 10.0 mi East 4.6 mph - N/A   Overcast
5:38 AM 45.0 °F - 43.0 °F 93% 29.82 in 10.0 mi Calm Calm - N/A   Overcast
5:53 AM 45.0 °F - 43.0 °F 93% 29.85 in 10.0 mi Calm Calm - N/A   Overcast
6:17 AM 45.0 °F - 43.0 °F 93% 29.83 in 2.5 mi Calm Calm - N/A   Overcast
6:28 AM 45.0 °F - 43.0 °F 93% 29.83 in 1.5 mi Calm Calm - N/A   Overcast
6:38 AM 45.0 °F - 44.1 °F 97% 29.83 in 2.0 mi Calm Calm - N/A   Overcast
6:53 AM 45.0 °F 43.5 °F 44.1 °F 97% 29.86 in 1.8 mi East 3.5 mph - N/A   Overcast
7:53 AM 45.0 °F 42.6 °F 44.1 °F 97% 29.86 in 1.5 mi East 4.6 mph - 0.00 in   Overcast
8:53 AM 46.0 °F - 44.1 °F 93% 29.86 in 4.0 mi Calm Calm - 0.00 in   Overcast
9:53 AM 48.0 °F - 45.0 °F 89% 29.86 in 4.0 mi Calm Calm - N/A   Overcast
10:53 AM 48.9 °F - 45.0 °F 86% 29.86 in 10.0 mi Calm Calm - N/A   Overcast
11:53 AM 50.0 °F - 46.0 °F 86% 29.85 in 10.0 mi Variable 3.5 mph - N/A   Overcast
12:53 PM 53.1 °F - 45.0 °F 74% 29.83 in 10.0 mi Variable 3.5 mph - N/A   Overcast
1:53 PM 53.1 °F - 46.0 °F 77% 29.82 in 10.0 mi Calm Calm - N/A   Overcast
2:53 PM 53.1 °F - 48.0 °F 83% 29.81 in 9.0 mi ESE 6.9 mph - N/A   Overcast
3:00 PM 53.1 °F - 46.9 °F 80% 29.79 in 10.0 mi SE 6.9 mph - N/A   Overcast
3:22 PM 52.0 °F - 46.9 °F 83% 29.79 in 2.5 mi Variable 4.6 mph - 0.02 in Rain Rain
3:45 PM 51.1 °F - 48.9 °F 92% 29.79 in 2.5 mi SSW 4.6 mph - 0.06 in Rain Light Rain
3:53 PM 51.1 °F - 48.9 °F 92% 29.81 in 8.0 mi South 6.9 mph - 0.06 in   Overcast
4:53 PM 52.0 °F - 48.9 °F 89% 29.81 in 8.0 mi Calm Calm - 0.02 in Rain Light Rain
5:53 PM 51.1 °F - 48.9 °F 92% 29.81 in 9.0 mi ENE 4.6 mph - 0.02 in   Overcast
6:00 PM 51.1 °F - 48.9 °F 92% 29.80 in 3.0 mi Variable 3.5 mph - 0.02 in Rain Rain
6:02 PM 51.1 °F - 48.9 °F 92% 29.80 in 2.5 mi North 3.5 mph - 0.03 in Rain Rain
6:10 PM 50.0 °F - 48.9 °F 96% 29.80 in 1.2 mi NW 4.6 mph - 0.07 in Rain Rain
6:21 PM 50.0 °F - 48.9 °F 96% 29.81 in 3.0 mi NNE 3.5 mph - 0.08 in Rain Light Rain
6:33 PM 50.0 °F - 48.0 °F 93% 29.81 in 4.0 mi Variable 3.5 mph - 0.09 in Rain Light Rain
6:53 PM 50.0 °F - 48.0 °F 93% 29.83 in 5.0 mi NNW 3.5 mph - 0.10 in Rain Light Rain
7:06 PM 50.0 °F - 48.0 °F 93% 29.81 in 4.0 mi NNW 4.6 mph - 0.01 in Rain Light Rain
7:31 PM 48.9 °F - 46.0 °F 90% 29.82 in 10.0 mi Calm Calm - 0.01 in Rain Light Rain
7:53 PM 48.9 °F - 46.0 °F 90% 29.85 in 6.0 mi NNW 3.5 mph - 0.02 in Rain Light Rain
8:53 PM 48.0 °F - 45.0 °F 89% 29.86 in 10.0 mi Calm Calm - 0.00 in Rain Light Rain
9:53 PM 48.0 °F - 45.0 °F 89% 29.87 in 10.0 mi Calm Calm - 0.01 in   Overcast
10:53 PM 46.9 °F - 44.1 °F 90% 29.86 in 10.0 mi NW 3.5 mph - N/A   Mostly Cloudy
11:51 PM 46.4 °F 45.2 °F 44.6 °F 93% 29.85 in 10.0 mi NW 3.5 mph - N/A   Overcast
11:53 PM 46.9 °F - 44.1 °F 90% 29.88 in 10.0 mi Calm Calm - N/A   Overcast